Time,TemperatureF,DewpointF,PressureIn,WindDirection,WindDirectionDegrees,WindSpeedMPH,WindSpeedGustMPH,Humidity,HourlyPrecipIn,Conditions,Clouds,dailyrainin,SoftwareType,DateUTC
2013-01-20 00:04:00,30.0,28.0,29.85,NNW,341,0.0,0.0,94,0.00,,,0.03,,2013-01-20 05:04:00,
2013-01-20 00:12:00,30.0,28.0,29.85,NNW,341,0.0,0.0,94,0.00,,,0.03,,2013-01-20 05:12:00,
2013-01-20 00:23:00,30.0,29.0,29.84,NNW,341,0.0,0.0,95,0.00,,,0.03,,2013-01-20 05:23:00,
2013-01-20 00:33:00,30.0,29.0,29.83,NNW,341,0.0,0.0,95,0.00,,,0.03,,2013-01-20 05:33:00,
2013-01-20 00:43:00,30.0,29.0,29.83,NNW,341,0.0,0.0,95,0.00,,,0.03,,2013-01-20 05:43:00,
2013-01-20 00:53:00,31.0,30.0,29.82,NNW,343,3.0,5.0,95,0.00,,,0.03,,2013-01-20 05:53:00,
2013-01-20 01:02:00,31.0,29.0,29.81,NNW,336,3.0,5.0,94,0.00,,,0.03,,2013-01-20 06:02:00,
2013-01-20 01:12:00,31.0,29.0,29.81,NNW,336,3.0,5.0,94,0.00,,,0.03,,2013-01-20 06:12:00,
2013-01-20 01:22:00,31.0,29.0,29.81,NNW,331,1.0,4.0,94,0.00,,,0.03,,2013-01-20 06:22:00,
2013-01-20 01:33:00,31.0,29.0,29.81,NNW,331,0.0,2.0,94,0.00,,,0.03,,2013-01-20 06:33:00,
2013-01-20 01:43:00,31.0,29.0,29.81,NNW,331,0.0,2.0,94,0.00,,,0.03,,2013-01-20 06:43:00,
2013-01-20 01:52:00,31.0,29.0,29.81,NNW,331,1.0,3.0,94,0.00,,,0.03,,2013-01-20 06:52:00,
2013-01-20 02:02:00,32.0,30.0,29.80,NNW,331,1.0,2.0,93,0.00,,,0.03,,2013-01-20 07:02:00,
2013-01-20 02:12:00,32.0,30.0,29.80,NNW,331,1.0,2.0,93,0.00,,,0.03,,2013-01-20 07:12:00,
2013-01-20 02:22:00,31.0,29.0,29.80,NNW,331,0.0,1.0,93,0.00,,,0.03,,2013-01-20 07:22:00,
2013-01-20 02:32:00,31.0,29.0,29.79,NNW,331,0.0,0.0,94,0.00,,,0.03,,2013-01-20 07:32:00,
2013-01-20 02:42:00,31.0,29.0,29.79,NNW,331,0.0,0.0,94,0.00,,,0.03,,2013-01-20 07:42:00,
2013-01-20 02:52:00,32.0,30.0,29.78,NNW,331,0.0,1.0,94,0.00,,,0.03,,2013-01-20 07:52:00,
2013-01-20 03:02:00,31.0,29.0,29.77,NNW,331,0.0,0.0,94,0.00,,,0.03,,2013-01-20 08:02:00,
2013-01-20 03:12:00,31.0,29.0,29.77,NNW,331,0.0,0.0,94,0.00,,,0.03,,2013-01-20 08:12:00,
2013-01-20 03:22:00,31.0,30.0,29.75,NNW,331,0.0,0.0,95,0.00,,,0.03,,2013-01-20 08:22:00,
2013-01-20 03:32:00,31.0,30.0,29.74,NNW,331,0.0,0.0,95,0.00,,,0.03,,2013-01-20 08:32:00,
2013-01-20 03:42:00,31.0,30.0,29.74,NNW,331,0.0,0.0,95,0.00,,,0.03,,2013-01-20 08:42:00,
2013-01-20 03:52:00,31.0,30.0,29.72,NNW,331,0.0,2.0,95,0.00,,,0.03,,2013-01-20 08:52:00,
2013-01-20 04:02:00,30.0,29.0,29.70,NW,321,1.0,2.0,95,0.00,,,0.03,,2013-01-20 09:02:00,
2013-01-20 04:12:00,30.0,29.0,29.70,NW,321,1.0,2.0,95,0.00,,,0.03,,2013-01-20 09:12:00,
2013-01-20 04:22:00,30.0,29.0,29.69,NW,313,0.0,2.0,96,0.00,,,0.03,,2013-01-20 09:22:00,
2013-01-20 04:33:00,30.0,29.0,29.69,NW,313,1.0,2.0,96,0.00,,,0.03,,2013-01-20 09:33:00,
2013-01-20 04:42:00,30.0,29.0,29.69,NW,313,1.0,2.0,96,0.00,,,0.03,,2013-01-20 09:42:00,
2013-01-20 04:52:00,31.0,30.0,29.67,NW,313,0.0,2.0,96,0.00,,,0.03,,2013-01-20 09:52:00,
2013-01-20 05:03:00,30.0,29.0,29.67,NW,313,1.0,2.0,96,0.00,,,0.03,,2013-01-20 10:03:00,
2013-01-20 05:12:00,30.0,29.0,29.67,NW,313,1.0,2.0,96,0.00,,,0.03,,2013-01-20 10:12:00,
2013-01-20 05:22:00,30.0,29.0,29.65,West,267,0.0,2.0,97,0.00,,,0.03,,2013-01-20 10:22:00,
2013-01-20 05:32:00,30.0,29.0,29.65,West,267,1.0,3.0,97,0.00,,,0.03,,2013-01-20 10:32:00,
2013-01-20 05:42:00,30.0,29.0,29.65,West,267,1.0,3.0,97,0.00,,,0.03,,2013-01-20 10:42:00,
2013-01-20 05:52:00,31.0,30.0,29.65,West,267,0.0,2.0,97,0.00,,,0.03,,2013-01-20 10:52:00,
2013-01-20 06:03:00,31.0,30.0,29.64,West,267,0.0,2.0,97,0.00,,,0.03,,2013-01-20 11:03:00,
2013-01-20 06:12:00,31.0,30.0,29.64,West,267,0.0,2.0,97,0.00,,,0.03,,2013-01-20 11:12:00,
2013-01-20 06:22:00,32.0,32.0,29.61,West,272,0.0,1.0,98,0.00,,,0.03,,2013-01-20 11:22:00,
2013-01-20 06:33:00,32.0,32.0,29.61,West,272,1.0,3.0,98,0.00,,,0.03,,2013-01-20 11:33:00,
2013-01-20 06:43:00,32.0,32.0,29.61,West,272,1.0,3.0,98,0.00,,,0.03,,2013-01-20 11:43:00,
2013-01-20 06:53:00,32.0,32.0,29.61,West,272,1.0,3.0,98,0.00,,,0.03,,2013-01-20 11:53:00,
2013-01-20 07:03:00,31.0,30.0,29.58,WSW,257,0.0,3.0,97,0.00,,,0.03,,2013-01-20 12:03:00,
2013-01-20 07:12:00,31.0,30.0,29.58,WSW,257,0.0,3.0,97,0.00,,,0.03,,2013-01-20 12:12:00,
2013-01-20 07:23:00,31.0,30.0,29.57,WSW,257,0.0,0.0,97,0.00,,,0.03,,2013-01-20 12:23:00,
2013-01-20 07:33:00,31.0,31.0,29.55,WSW,257,1.0,3.0,98,0.00,,,0.03,,2013-01-20 12:33:00,
2013-01-20 07:43:00,31.0,31.0,29.55,WSW,257,1.0,3.0,98,0.00,,,0.03,,2013-01-20 12:43:00,
2013-01-20 07:52:00,35.0,34.0,29.54,SW,234,0.0,4.0,98,0.00,,,0.03,,2013-01-20 12:52:00,
2013-01-20 08:03:00,37.0,37.0,29.53,WSW,246,0.0,3.0,99,0.00,,,0.03,,2013-01-20 13:03:00,
2013-01-20 08:12:00,37.0,37.0,29.53,WSW,246,0.0,3.0,99,0.00,,,0.03,,2013-01-20 13:12:00,
2013-01-20 08:23:00,39.0,38.0,29.52,SSW,211,3.0,10.0,98,0.00,,,0.03,,2013-01-20 13:23:00,
2013-01-20 08:33:00,41.0,40.0,29.50,South,177,2.0,9.0,98,0.01,,,0.04,,2013-01-20 13:33:00,
2013-01-20 08:43:00,41.0,40.0,29.50,South,177,2.0,9.0,98,0.01,,,0.04,,2013-01-20 13:43:00,
2013-01-20 08:52:00,42.0,41.0,29.49,SSW,194,1.0,7.0,95,0.03,,,0.06,,2013-01-20 13:52:00,
2013-01-20 09:03:00,43.0,41.0,29.48,SE,124,4.0,11.0,92,0.05,,,0.08,,2013-01-20 14:03:00,
2013-01-20 09:12:00,43.0,41.0,29.48,SE,124,4.0,11.0,92,0.05,,,0.08,,2013-01-20 14:12:00,
2013-01-20 09:23:00,44.0,41.0,29.47,SSW,198,5.0,13.0,89,0.08,,,0.11,,2013-01-20 14:23:00,
2013-01-20 09:33:00,44.0,40.0,29.45,South,172,6.0,13.0,87,0.08,,,0.12,,2013-01-20 14:33:00,
2013-01-20 09:43:00,44.0,40.0,29.45,South,172,6.0,13.0,87,0.08,,,0.12,,2013-01-20 14:43:00,
2013-01-20 09:53:00,44.0,40.0,29.46,WSW,240,4.0,10.0,85,0.07,,,0.13,,2013-01-20 14:53:00,
2013-01-20 10:03:00,45.0,40.0,29.45,SW,217,3.0,18.0,84,0.05,,,0.13,,2013-01-20 15:03:00,
2013-01-20 10:12:00,45.0,40.0,29.45,SW,217,3.0,18.0,84,0.05,,,0.13,,2013-01-20 15:12:00,
2013-01-20 10:23:00,45.0,40.0,29.44,SW,221,5.0,13.0,83,0.02,,,0.13,,2013-01-20 15:23:00,
2013-01-20 10:33:00,45.0,40.0,29.43,SW,219,5.0,18.0,83,0.01,,,0.13,,2013-01-20 15:33:00,
2013-01-20 10:42:00,45.0,40.0,29.43,SW,219,5.0,18.0,83,0.01,,,0.13,,2013-01-20 15:42:00,
2013-01-20 10:53:00,45.0,40.0,29.41,South,185,3.0,13.0,82,0.00,,,0.13,,2013-01-20 15:53:00,
2013-01-20 11:03:00,45.0,39.0,29.40,South,190,6.0,13.0,80,0.00,,,0.13,,2013-01-20 16:03:00,
2013-01-20 11:12:00,45.0,39.0,29.40,South,190,6.0,13.0,80,0.00,,,0.13,,2013-01-20 16:12:00,
2013-01-20 11:23:00,46.0,40.0,29.39,South,175,7.0,19.0,78,0.00,,,0.13,,2013-01-20 16:23:00,
2013-01-20 11:33:00,46.0,39.0,29.38,South,185,5.0,13.0,75,0.00,,,0.13,,2013-01-20 16:33:00,
2013-01-20 11:43:00,46.0,39.0,29.38,South,185,5.0,13.0,75,0.00,,,0.13,,2013-01-20 16:43:00,
2013-01-20 11:53:00,46.0,37.0,29.37,SSW,194,7.0,19.0,72,0.00,,,0.13,,2013-01-20 16:53:00,
2013-01-20 12:03:00,47.0,38.0,29.36,SW,219,7.0,20.0,71,0.00,,,0.13,,2013-01-20 17:03:00,
2013-01-20 12:13:00,47.0,38.0,29.36,SW,219,7.0,20.0,71,0.00,,,0.13,,2013-01-20 17:13:00,
2013-01-20 12:22:00,46.0,37.0,29.36,SW,216,6.0,13.0,72,0.00,,,0.13,,2013-01-20 17:22:00,
2013-01-20 12:33:00,45.0,37.0,29.35,SSW,211,5.0,15.0,72,0.00,,,0.13,,2013-01-20 17:33:00,
2013-01-20 12:42:00,45.0,37.0,29.35,SSW,211,5.0,15.0,72,0.00,,,0.13,,2013-01-20 17:42:00,
2013-01-20 12:53:00,45.0,37.0,29.35,SSW,212,6.0,19.0,72,0.00,,,0.13,,2013-01-20 17:53:00,
2013-01-20 13:03:00,45.0,37.0,29.35,South,188,5.0,17.0,72,0.00,,,0.13,,2013-01-20 18:03:00,
2013-01-20 13:13:00,45.0,37.0,29.35,South,180,6.0,14.0,73,0.00,,,0.13,,2013-01-20 18:13:00,
2013-01-20 13:23:00,45.0,37.0,29.35,South,180,6.0,14.0,73,0.00,,,0.13,,2013-01-20 18:23:00,
2013-01-20 13:33:00,45.0,37.0,29.35,SSE,158,5.0,14.0,74,0.00,,,0.13,,2013-01-20 18:33:00,
2013-01-20 13:43:00,45.0,37.0,29.35,SSE,158,5.0,14.0,74,0.00,,,0.13,,2013-01-20 18:43:00,
2013-01-20 13:53:00,45.0,37.0,29.35,South,175,6.0,16.0,72,0.00,,,0.12,,2013-01-20 18:53:00,
2013-01-20 14:03:00,45.0,37.0,29.36,SW,215,4.0,15.0,72,0.00,,,0.12,,2013-01-20 19:03:00,
2013-01-20 14:12:00,45.0,37.0,29.36,SW,215,4.0,15.0,72,0.00,,,0.12,,2013-01-20 19:12:00,
2013-01-20 14:22:00,45.0,37.0,29.36,SSW,205,2.0,9.0,72,0.00,,,0.12,,2013-01-20 19:22:00,
2013-01-20 14:33:00,45.0,36.0,29.36,South,177,3.0,10.0,71,0.00,,,0.12,,2013-01-20 19:33:00,
2013-01-20 14:43:00,45.0,36.0,29.36,South,177,3.0,10.0,71,0.00,,,0.12,,2013-01-20 19:43:00,
2013-01-20 14:53:00,44.0,35.0,29.38,WSW,238,3.0,9.0,71,0.00,,,0.11,,2013-01-20 19:53:00,
2013-01-20 15:03:00,44.0,34.0,29.38,SW,215,5.0,9.0,67,0.00,,,0.11,,2013-01-20 20:03:00,
2013-01-20 15:12:00,44.0,34.0,29.38,SW,215,5.0,9.0,67,0.00,,,0.11,,2013-01-20 20:12:00,
2013-01-20 15:23:00,44.0,33.0,29.37,WSW,242,5.0,10.0,66,0.00,,,0.11,,2013-01-20 20:23:00,
2013-01-20 15:33:00,44.0,30.0,29.38,SSW,203,6.0,17.0,58,0.00,,,0.11,,2013-01-20 20:33:00,
2013-01-20 15:42:00,44.0,30.0,29.38,SSW,203,6.0,17.0,58,0.00,,,0.11,,2013-01-20 20:42:00,
2013-01-20 15:53:00,44.0,28.0,29.39,SW,236,6.0,17.0,54,0.00,,,0.11,,2013-01-20 20:53:00,
2013-01-20 16:04:00,43.0,28.0,29.39,SW,232,5.0,13.0,55,0.00,,,0.11,,2013-01-20 21:04:00,
2013-01-20 16:13:00,43.0,28.0,29.39,SW,232,5.0,13.0,55,0.00,,,0.11,,2013-01-20 21:13:00,
2013-01-20 16:23:00,43.0,29.0,29.40,South,188,4.0,9.0,58,0.00,,,0.11,,2013-01-20 21:23:00,
2013-01-20 16:33:00,43.0,28.0,29.41,South,183,4.0,12.0,56,0.00,,,0.11,,2013-01-20 21:33:00,
2013-01-20 16:43:00,43.0,28.0,29.41,South,183,4.0,12.0,56,0.00,,,0.11,,2013-01-20 21:43:00,
2013-01-20 16:53:00,43.0,28.0,29.41,South,183,4.0,12.0,56,0.00,,,0.11,,2013-01-20 21:53:00,
2013-01-20 17:03:00,41.0,31.0,29.44,SSW,203,2.0,8.0,66,0.00,,,0.10,,2013-01-20 22:03:00,
2013-01-20 17:13:00,41.0,31.0,29.44,SSW,203,2.0,8.0,66,0.00,,,0.10,,2013-01-20 22:13:00,
2013-01-20 17:23:00,40.0,29.0,29.44,SW,236,3.0,13.0,64,0.00,,,0.10,,2013-01-20 22:23:00,
2013-01-20 17:33:00,40.0,29.0,29.45,SW,219,3.0,10.0,64,0.00,,,0.10,,2013-01-20 22:33:00,
2013-01-20 17:43:00,40.0,29.0,29.45,SW,219,3.0,10.0,64,0.00,,,0.10,,2013-01-20 22:43:00,
2013-01-20 17:53:00,39.0,28.0,29.46,SW,234,2.0,7.0,64,0.00,,,0.10,,2013-01-20 22:53:00,
2013-01-20 18:03:00,39.0,28.0,29.47,SSW,198,2.0,7.0,65,0.00,,,0.10,,2013-01-20 23:03:00,
2013-01-20 18:13:00,39.0,28.0,29.47,SSW,198,2.0,7.0,65,0.00,,,0.10,,2013-01-20 23:13:00,
2013-01-20 18:23:00,39.0,28.0,29.47,SSW,198,2.0,7.0,65,0.00,,,0.10,,2013-01-20 23:23:00,
2013-01-20 18:33:00,38.0,27.0,29.49,SW,214,1.0,6.0,65,0.00,,,0.10,,2013-01-20 23:33:00,
2013-01-20 18:43:00,38.0,27.0,29.49,SW,214,1.0,6.0,65,0.00,,,0.10,,2013-01-20 23:43:00,
2013-01-20 18:53:00,39.0,25.0,29.49,SW,225,4.0,15.0,56,0.00,,,0.10,,2013-01-20 23:53:00,
2013-01-20 19:03:00,38.0,22.0,29.51,SW,227,5.0,14.0,52,0.00,,,0.10,,2013-01-21 00:03:00,
2013-01-20 19:13:00,38.0,22.0,29.51,SW,227,5.0,14.0,52,0.00,,,0.10,,2013-01-21 00:13:00,
2013-01-20 19:23:00,38.0,21.0,29.52,West,278,6.0,15.0,50,0.00,,,0.10,,2013-01-21 00:23:00,
2013-01-20 19:33:00,37.0,20.0,29.53,SW,218,7.0,16.0,49,0.00,,,0.10,,2013-01-21 00:33:00,
2013-01-20 19:43:00,37.0,20.0,29.53,SW,218,7.0,16.0,49,0.00,,,0.10,,2013-01-21 00:43:00,
2013-01-20 19:54:00,36.0,18.0,29.54,SW,225,6.0,16.0,48,0.00,,,0.10,,2013-01-21 00:54:00,
2013-01-20 20:03:00,36.0,19.0,29.55,NE,39,5.0,16.0,49,0.00,,,0.10,,2013-01-21 01:03:00,
2013-01-20 20:13:00,36.0,19.0,29.55,NE,39,5.0,16.0,49,0.00,,,0.10,,2013-01-21 01:13:00,
2013-01-20 20:23:00,35.0,18.0,29.55,WSW,238,8.0,19.0,49,0.00,,,0.10,,2013-01-21 01:23:00,
2013-01-20 20:33:00,35.0,18.0,29.55,WSW,238,8.0,19.0,49,0.00,,,0.10,,2013-01-21 01:33:00,
2013-01-20 20:43:00,35.0,18.0,29.55,WSW,238,8.0,19.0,49,0.00,,,0.10,,2013-01-21 01:43:00,
2013-01-20 20:53:00,34.0,16.0,29.57,WSW,243,6.0,17.0,47,0.00,,,0.10,,2013-01-21 01:53:00,
2013-01-20 21:03:00,33.0,14.0,29.58,SW,235,6.0,15.0,45,0.00,,,0.10,,2013-01-21 02:03:00,
2013-01-20 21:13:00,33.0,14.0,29.58,SW,235,6.0,15.0,45,0.00,,,0.10,,2013-01-21 02:13:00,
2013-01-20 21:23:00,32.0,15.0,29.60,WSW,256,2.0,11.0,48,0.00,,,0.10,,2013-01-21 02:23:00,
2013-01-20 21:33:00,32.0,15.0,29.61,WSW,245,2.0,11.0,49,0.00,,,0.10,,2013-01-21 02:33:00,
2013-01-20 21:43:00,32.0,15.0,29.61,WSW,245,2.0,11.0,49,0.00,,,0.10,,2013-01-21 02:43:00,
2013-01-20 21:53:00,31.0,15.0,29.62,West,262,2.0,8.0,51,0.00,,,0.10,,2013-01-21 02:53:00,
2013-01-20 22:03:00,30.0,17.0,29.63,WNW,293,3.0,10.0,58,0.00,,,0.10,,2013-01-21 03:03:00,
2013-01-20 22:13:00,30.0,17.0,29.63,WNW,293,3.0,10.0,58,0.00,,,0.10,,2013-01-21 03:13:00,
2013-01-20 22:23:00,29.0,17.0,29.65,SW,223,2.0,9.0,61,0.00,,,0.10,,2013-01-21 03:23:00,
2013-01-20 22:33:00,27.0,12.0,29.66,SW,226,5.0,16.0,53,0.00,,,0.10,,2013-01-21 03:33:00,
2013-01-20 22:43:00,27.0,12.0,29.66,SW,226,5.0,16.0,53,0.00,,,0.10,,2013-01-21 03:43:00,
2013-01-20 22:54:00,27.0,12.0,29.67,NNW,348,3.0,16.0,53,0.00,,,0.10,,2013-01-21 03:54:00,
2013-01-20 23:03:00,26.0,10.0,29.68,SW,236,2.0,19.0,51,0.00,,,0.10,,2013-01-21 04:03:00,
2013-01-20 23:13:00,26.0,10.0,29.68,SW,236,2.0,19.0,51,0.00,,,0.10,,2013-01-21 04:13:00,
2013-01-20 23:23:00,26.0,10.0,29.68,SW,236,2.0,19.0,51,0.00,,,0.10,,2013-01-21 04:23:00,
2013-01-20 23:33:00,25.0,8.0,29.69,SW,219,5.0,17.0,47,0.00,,,0.10,,2013-01-21 04:33:00,
2013-01-20 23:43:00,25.0,8.0,29.69,SW,219,5.0,17.0,47,0.00,,,0.10,,2013-01-21 04:43:00,
2013-01-20 23:53:00,24.0,7.0,29.70,SSW,198,5.0,15.0,48,0.00,,,0.10,,2013-01-21 04:53:00,